Torna al catalogo

METEOR 2-8 DEB

AttivoPO
NORAD 36351·DEBRIS·🇷🇺 Russia

Lanciato Mar 25, 1982 da Plesetsk Cosmodrome

Loading…

Prossimi Passaggi (prossime 24 ore)

TLE

In scadenzaSource: Space-Track

Epoca: Sep 9, 2026, 00:18 UTC

1 36351U 82025AM  26252.01303640  .00004648  00000-0  17673-2 0  9997
2 36351  82.5450 157.1006 0015345 336.5781  23.4704 14.30759990736110

Traccia METEOR 2-8 DEB in tempo reale con AllMySat

Download on the App Store